• In Hungary
  • List of Countries
  • For 7 days
  • Water Temperature
  • Satellite Maps
  • Weather Map
  • News
  • Weather Widgets
  • user-avatar
    Login

    Hourly Weather Chuhynka

    Today, 19 February, Monday

    Time Temperature Precipitation Wind Pressure Humidity
    00:00 -1°C° 0 mm 1 mps 755 mmHg 93%
    01:00 -1°C° 0 mm 1 mps 755 mmHg 93%
    02:00 -1°C° 0 mm 1 mps 755 mmHg 93%
    03:00 -1°C° 0 mm 1 mps 755 mmHg 93%
    04:00 -1°C° 0 mm 1 mps 755 mmHg 93%
    05:00 -1°C° 0 mm 1 mps 755 mmHg 93%
    06:00 -3°C° 0 mm 0 mps 754 mmHg 93%
    07:00 -1°C° 0 mm 1 mps 755 mmHg 92%
    08:00 -1°C° 0 mm 1 mps 755 mmHg 92%
    09:00 -1°C° 0 mm 1 mps 755 mmHg 92%
    10:00 0°C° 0 mm 1 mps 755 mmHg 91%
    11:00 0°C° 0 mm 1 mps 755 mmHg 91%
    12:00 +1°C° 0 mm 1 mps 755 mmHg 91%
    13:00 +1°C° 0 mm 1 mps 755 mmHg 91%
    14:00 +1°C° 0 mm 1 mps 755 mmHg 90%
    15:00 -1°C° 0 mm 2 mps 755 mmHg 89%
    16:00 +1°C° 0 mm 1 mps 755 mmHg 90%
    17:00 0°C° 0 mm 1 mps 755 mmHg 90%
    18:00 0°C° 0 mm 1 mps 755 mmHg 91%
    19:00 -1°C° 0 mm 1 mps 755 mmHg 91%
    20:00 -1°C° 0 mm 1 mps 755 mmHg 91%
    21:00 -1°C° 0 mm 1 mps 755 mmHg 91%
    22:00 -1°C° 0 mm 1 mps 755 mmHg 91%
    23:00 -1°C° 0 mm 1 mps 755 mmHg 91%

    Tomorrow, 20 February, Tuesday

    Time Temperature Precipitation Wind Pressure Humidity
    00:00 -4°C° 0 mm 2 mps 755 mmHg 91%
    01:00 -4°C° 0 mm 2 mps 755 mmHg 92%
    02:00 -4°C° 0 mm 2 mps 755 mmHg 92%
    03:00 -6°C° 0 mm 3 mps 755 mmHg 92%
    04:00 -7°C° 0 mm 3 mps 755 mmHg 92%
    05:00 -7°C° 0 mm 3 mps 755 mmHg 92%
    06:00 -8°C° 0 mm 3 mps 755 mmHg 92%
    07:00 -8°C° 0 mm 3 mps 756 mmHg 91%
    08:00 -9°C° 0 mm 3 mps 756 mmHg 90%
    09:00 -9°C° 0 mm 3 mps 756 mmHg 88%
    10:00 -8°C° 0 mm 3 mps 756 mmHg 86%
    11:00 -7°C° 0 mm 3 mps 756 mmHg 83%
    12:00 -7°C° 0 mm 3 mps 756 mmHg 81%
    13:00 -6°C° 0 mm 3 mps 756 mmHg 80%
    14:00 -6°C° 0 mm 3 mps 756 mmHg 80%
    15:00 -6°C° 0 mm 3 mps 756 mmHg 79%
    16:00 -6°C° 0 mm 3 mps 756 mmHg 81%
    17:00 -6°C° 0 mm 2 mps 756 mmHg 83%
    18:00 -7°C° 0 mm 2 mps 756 mmHg 86%
    19:00 -7°C° 0 mm 2 mps 757 mmHg 86%
    20:00 -7°C° 0 mm 2 mps 757 mmHg 87%
    21:00 -6°C° 0 mm 1 mps 757 mmHg 88%
    22:00 -6°C° 0 mm 1 mps 757 mmHg 87%
    23:00 -6°C° 0 mm 1 mps 757 mmHg 87%

    Day after tomorrow, 21 February, Wednesday

    Time Temperature Precipitation Wind Pressure Humidity
    00:00 -6°C° 0 mm 1 mps 757 mmHg 87%
    01:00 -7°C° 0 mm 1 mps 757 mmHg 87%
    02:00 -7°C° 0 mm 1 mps 757 mmHg 87%
    03:00 -7°C° 0 mm 1 mps 757 mmHg 88%
    04:00 -7°C° 0 mm 1 mps 757 mmHg 88%
    05:00 -8°C° 0 mm 1 mps 757 mmHg 88%
    06:00 -8°C° 0 mm 1 mps 757 mmHg 89%
    07:00 -8°C° 0 mm 1 mps 757 mmHg 89%
    08:00 -8°C° 0 mm 1 mps 757 mmHg 88%
    09:00 -8°C° 0 mm 1 mps 758 mmHg 88%
    10:00 -7°C° 0 mm 1 mps 758 mmHg 85%
    11:00 -6°C° 0 mm 1 mps 758 mmHg 82%
    12:00 -6°C° 0 mm 1 mps 758 mmHg 79%
    13:00 -6°C° 0 mm 2 mps 757 mmHg 79%
    14:00 -6°C° 0 mm 2 mps 757 mmHg 78%
    15:00 -6°C° 0 mm 2 mps 757 mmHg 77%
    16:00 -6°C° 0 mm 2 mps 757 mmHg 80%
    17:00 -7°C° 0 mm 2 mps 757 mmHg 82%
    18:00 -7°C° 0 mm 2 mps 757 mmHg 84%
    19:00 -8°C° 0 mm 2 mps 757 mmHg 85%
    20:00 -8°C° 0 mm 2 mps 757 mmHg 86%
    21:00 -8°C° 0 mm 2 mps 757 mmHg 86%
    22:00 -8°C° 0 mm 2 mps 757 mmHg 86%
    23:00 -8°C° 0 mm 2 mps 757 mmHg 86%

    22 February, Thursday

    Time Temperature Precipitation Wind Pressure Humidity
    00:00 -8°C° 0 mm 2 mps 757 mmHg 86%
    01:00 -8°C° 0 mm 2 mps 757 mmHg 87%
    02:00 -8°C° 0 mm 2 mps 757 mmHg 87%
    03:00 -9°C° 0 mm 2 mps 757 mmHg 87%
    04:00 -10°C° 0 mm 3 mps 757 mmHg 88%
    05:00 -10°C° 0 mm 3 mps 757 mmHg 89%
    06:00 -12°C° 0 mm 3 mps 757 mmHg 89%
    07:00 -12°C° 0 mm 3 mps 757 mmHg 89%
    08:00 -12°C° 0 mm 4 mps 758 mmHg 89%
    09:00 -12°C° 0 mm 4 mps 758 mmHg 88%
    10:00 -11°C° 0 mm 4 mps 758 mmHg 87%
    11:00 -10°C° 0 mm 4 mps 758 mmHg 85%
    12:00 -10°C° 0 mm 4 mps 758 mmHg 83%
    13:00 -10°C° 0 mm 4 mps 757 mmHg 83%
    14:00 -9°C° 0 mm 4 mps 757 mmHg 82%
    15:00 -9°C° 0 mm 4 mps 757 mmHg 82%
    16:00 -10°C° 0 mm 4 mps 757 mmHg 83%
    17:00 -11°C° 0 mm 4 mps 757 mmHg 85%
    18:00 -12°C° 0 mm 4 mps 758 mmHg 86%
    19:00 -14°C° 0 mm 4 mps 758 mmHg 86%
    20:00 -14°C° 0 mm 4 mps 758 mmHg 86%
    21:00 -15°C° 0 mm 4 mps 758 mmHg 86%
    22:00 -15°C° 0 mm 4 mps 758 mmHg 86%
    23:00 -15°C° 0 mm 4 mps 758 mmHg 86%

    23 February, Friday

    Time Temperature Precipitation Wind Pressure Humidity
    00:00 -16°C° 0 mm 4 mps 758 mmHg 86%
    01:00 -16°C° 0 mm 4 mps 758 mmHg 86%
    02:00 -16°C° 0 mm 4 mps 758 mmHg 86%
    03:00 -16°C° 0 mm 4 mps 757 mmHg 86%
    04:00 -16°C° 0 mm 4 mps 757 mmHg 87%
    05:00 -16°C° 0 mm 4 mps 757 mmHg 87%
    06:00 -17°C° 0 mm 5 mps 757 mmHg 87%
    07:00 -17°C° 0 mm 5 mps 757 mmHg 87%
    08:00 -15°C° 0 mm 5 mps 757 mmHg 86%
    09:00 -15°C° 0 mm 5 mps 757 mmHg 86%
    10:00 -14°C° 0 mm 5 mps 757 mmHg 85%
    11:00 -13°C° 0 mm 5 mps 757 mmHg 84%
    12:00 -12°C° 0 mm 6 mps 756 mmHg 83%
    13:00 -11°C° 0 mm 6 mps 756 mmHg 85%
    14:00 -11°C° 0 mm 6 mps 756 mmHg 86%
    15:00 -10°C° 0 mm 6 mps 755 mmHg 87%
    16:00 -10°C° 0.1 mm 6 mps 755 mmHg 88%
    17:00 -10°C° 0.1 mm 6 mps 755 mmHg 89%
    18:00 -10°C° 0.1 mm 6 mps 755 mmHg 90%
    19:00 -9°C° 0.1 mm 6 mps 755 mmHg 90%
    20:00 -9°C° 0.1 mm 6 mps 755 mmHg 90%
    21:00 -9°C° 0.1 mm 6 mps 755 mmHg 90%
    22:00 -8°C° 0.1 mm 6 mps 754 mmHg 91%
    23:00 -8°C° 0.1 mm 6 mps 754 mmHg 91%

    24 February, Saturday

    Time Temperature Precipitation Wind Pressure Humidity
    00:00 -6°C° 0.1 mm 6 mps 754 mmHg 91%
    01:00 -6°C° 0.1 mm 6 mps 754 mmHg 92%
    02:00 -6°C° 0.1 mm 7 mps 753 mmHg 92%
    03:00 -6°C° 0.1 mm 7 mps 753 mmHg 92%
    04:00 -6°C° 0.1 mm 7 mps 753 mmHg 92%
    05:00 -6°C° 0.1 mm 7 mps 753 mmHg 92%
    06:00 -6°C° 0.1 mm 7 mps 753 mmHg 92%
    07:00 -4°C° 0.1 mm 7 mps 752 mmHg 91%
    08:00 -4°C° 0.1 mm 7 mps 752 mmHg 91%
    09:00 -5°C° 0.1 mm 8 mps 752 mmHg 91%
    10:00 -4°C° 0.1 mm 8 mps 752 mmHg 90%
    11:00 -4°C° 0.1 mm 8 mps 752 mmHg 90%
    12:00 -2°C° 0.1 mm 8 mps 752 mmHg 89%
    13:00 -2°C° 0.1 mm 8 mps 751 mmHg 89%
    14:00 -2°C° 0.1 mm 8 mps 751 mmHg 89%
    15:00 -2°C° 0.1 mm 8 mps 751 mmHg 89%
    16:00 -2°C° 0.1 mm 8 mps 750 mmHg 90%
    17:00 -2°C° 0.1 mm 8 mps 750 mmHg 90%
    18:00 -1°C° 0.1 mm 8 mps 750 mmHg 90%
    19:00 -1°C° 0 mm 9 mps 750 mmHg 91%
    20:00 -1°C° 0 mm 9 mps 750 mmHg 91%
    21:00 -1°C° 0 mm 9 mps 750 mmHg 91%
    22:00 -1°C° 0.3 mm 8 mps 750 mmHg 92%
    23:00 -1°C° 0.3 mm 8 mps 750 mmHg 92%
    Show more